TimeMDT,TemperatureF,Dew PointF,Humidity,Sea Level PressureIn,VisibilityMPH,Wind Direction,Wind SpeedMPH,Gust SpeedMPH,PrecipitationIn,Events,Conditions,WindDirDegrees,DateUTC
12:52 AM,51.1,19.0,28,29.96,10.0,NW,6.9,-,N/A,,Partly Cloudy,310,2013-04-21 06:52:00
1:52 AM,51.1,19.9,29,29.95,10.0,NW,5.8,-,N/A,,Clear,320,2013-04-21 07:52:00
2:52 AM,51.1,19.9,29,29.94,10.0,NW,8.1,-,N/A,,Clear,320,2013-04-21 08:52:00
3:52 AM,46.0,18.0,33,29.97,10.0,East,4.6,-,N/A,,Clear,80,2013-04-21 09:52:00
4:52 AM,45.0,19.0,36,29.99,10.0,Calm,Calm,-,N/A,,Clear,0,2013-04-21 10:52:00
5:52 AM,39.9,16.0,38,30.01,10.0,Calm,Calm,-,N/A,,Clear,0,2013-04-21 11:52:00
6:52 AM,37.9,16.0,41,30.05,10.0,South,3.5,-,N/A,,Clear,190,2013-04-21 12:52:00
7:52 AM,46.0,18.0,33,30.06,10.0,Calm,Calm,-,N/A,,Clear,0,2013-04-21 13:52:00
8:52 AM,52.0,19.9,28,30.06,10.0,Calm,Calm,-,N/A,,Clear,0,2013-04-21 14:52:00
9:52 AM,55.0,19.9,25,30.06,10.0,Calm,Calm,-,N/A,,Clear,0,2013-04-21 15:52:00
10:52 AM,57.9,19.9,23,30.05,10.0,Variable,4.6,-,N/A,,Clear,0,2013-04-21 16:52:00
11:52 AM,62.1,19.9,20,30.01,10.0,North,5.8,-,N/A,,Clear,10,2013-04-21 17:52:00
12:52 PM,64.9,17.1,16,29.99,10.0,West,8.1,18.4,N/A,,Clear,260,2013-04-21 18:52:00
1:52 PM,66.9,10.9,11,29.95,10.0,NW,12.7,16.1,N/A,,Clear,320,2013-04-21 19:52:00
2:52 PM,70.0,10.9,10,29.91,10.0,Variable,6.9,-,N/A,,Clear,0,2013-04-21 20:52:00
3:52 PM,72.0,7.0,8,29.89,10.0,West,13.8,20.7,N/A,,Clear,280,2013-04-21 21:52:00
4:52 PM,73.0,6.1,7,29.86,10.0,NW,8.1,-,N/A,,Partly Cloudy,320,2013-04-21 22:52:00
5:52 PM,73.9,5.0,7,29.86,10.0,NNW,16.1,19.6,N/A,,Partly Cloudy,340,2013-04-21 23:52:00
6:52 PM,73.0,3.9,7,29.87,10.0,NW,8.1,-,N/A,,Partly Cloudy,310,2013-04-22 00:52:00
7:52 PM,69.1,8.1,9,29.87,10.0,North,11.5,-,N/A,,Partly Cloudy,10,2013-04-22 01:52:00
8:52 PM,66.9,12.0,12,29.88,10.0,North,8.1,-,N/A,,Partly Cloudy,360,2013-04-22 02:52:00
9:52 PM,64.0,12.9,14,29.91,10.0,North,4.6,-,N/A,,Clear,350,2013-04-22 03:52:00
10:52 PM,61.0,12.9,15,29.91,10.0,NW,4.6,-,N/A,,Clear,320,2013-04-22 04:52:00
11:52 PM,60.1,12.9,16,29.89,10.0,North,6.9,-,N/A,,Clear,350,2013-04-22 05:52:00